Tracking 19817 objects as of 18-Aug-2019
HD Live streaming from Space Station
objects crossing your sky now

COSMOS 2251 DEB

Track COSMOS 2251 DEB now!
10-day predictions


NORAD ID: 40233
Int'l Code: 1993-036BVN
Perigee: 715.8 km
Apogee: 805.8 km
Inclination: 73.9 °
Period: 99.9 minutes
Semi major axis: 7131 km
RCS: Unknown
Launch date: June 16, 1993
Source: Commonwealth of Independent States (former USSR) (CIS)
Launch site: PLESETSK MISSILE AND SPACE COMPLEX (PKMTR)

Note: This is SATELLITE DEBRIS
aabbcc
Your satellite tracking list
Your tracking list is empty




NASA's NSSDC Master Catalog

Two Line Element Set (TLE):
1 40233U 93036BVN 19227.12029977 +.00000286 +00000-0 +94552-4 0  9996
2 40233 073.9463 120.4867 0063072 349.9468 010.0419 14.41458466257243
Source of the keplerian elements: AFSPC